Location: Overspoor
(51.4747°N, 5.6641°E)
Time: 12:15:30
(UTC+02:00)

NANOSAT C BR1 - Pass Details

Date: 06 July 2022
Orbit: 584 x 599 km, 98.0° (Epoch: 13 August)

Event Time Altitude Azimuth Distance (km) Brightness Sun altitude
Rises 03:53:55 0° 14° (NNE) 2,855 ? -10.4°
Reaches altitude 10° 03:56:06 10° 16° (NNE) 1,950 ? -10.2°
Maximum altitude 04:00:21 82° 104° (ESE) 613 ? -9.9°
Enters shadow 04:04:24 11° 192° (SSW) 1,871 ? -9.5°
